Wind_Speed
106 104 99 93 87 82 77 71 65 60 58 58 58 58 60 63 66 68 69 68 61 51 43 38 33 26 21 17 14 11 8 9 12 15 19 22 25 29 32 35 39 42 45 47 50 53 57 61 65 70 75 79 84 88 92 94 96 98 98 98 98 99 99 100 101 102 103 103 103 102 101 98 97 95 94 92 91 90 89 89 88 88 87 86 85 83 81
105 103 98 91 85 80 75 68 62 57 55 56 56 57 59 62 65 68 69 67 62 54 43 36 33 28 23 18 15 13 9 9 11 14 18 22 25 28 31 35 38 41 44 47 49 52 55 59 62 66 70 74 78 82 87 91 94 96 98 98 98 99 100 101 101 101 102 103 103 103 102 100 98 97 95 94 93 91 90 90 90 89 89 87 86 85 83
105 102 97 90 84 78 72 65 58 54 53 53 54 55 58 61 64 67 68 67 63 56 46 37 33 29 25 19 15 13 12 10 10 13 17 21 24 27 31 34 37 40 43 46 48 51 54 57 60 63 67 70 73 77 81 85 89 92 95 97 97 98 100 101 101 101 102 102 102 102 102 101 100 99 97 96 94 93 92 91 91 90 89 88 87 86 85
105 101 95 88 82 76 69 62 55 51 50 51 52 54 57 60 63 66 68 68 65 59 50 41 35 31 28 22 17 13 12 11 11 12 15 19 23 26 29 33 36 39 43 45 48 50 53 56 59 62 65 68 71 74 77 80 83 87 90 93 95 96 98 99 100 101 101 102 102 103 103 103 102 101 100 98 96 95 93 92 92 91 90 89 88 87 87
104 100 93 86 80 74 66 58 52 48 48 49 50 53 55 58 61 64 67 68 66 61 54 44 36 33 30 26 20 14 11 11 11 12 15 17 21 25 28 32 35 38 41 45 47 50 52 54 57 60 64 67 70 73 76 78 81 83 86 88 90 93 95 97 98 99 100 100 101 102 102 103 103 103 102 100 99 97 95 94 93 92 91 90 89 89 88
103 98 91 84 78 71 62 54 49 46 46 47 48 51 54 56 59 62 65 67 66 61 56 47 39 34 31 28 23 17 12 10 10 12 14 16 19 23 26 30 34 37 40 43 46 49 51 53 56 58 62 65 69 72 75 77 80 82 84 86 88 90 92 94 95 97 98 99 100 100 101 102 103 103 103 102 101 99 97 96 95 93 92 91 90 90 90
101 95 88 81 75 67 58 51 46 44 44 45 46 49 52 55 58 61 63 66 66 62 56 50 42 36 32 30 26 21 15 11 9 10 12 15 18 22 25 29 32 36 39 42 45 48 50 53 55 57 60 63 66 69 72 76 79 82 84 86 88 89 91 92 94 95 97 98 99 100 100 101 102 103 103 103 102 101 99 98 97 95 94 92 91 91 91
99 92 85 79 72 63 53 47 44 42 42 43 44 47 50 53 56 59 62 65 65 62 57 51 44 38 35 31 29 25 20 14 10 9 10 13 16 20 24 27 30 34 37 40 44 47 50 52 55 57 59 61 63 66 69 72 76 79 82 85 88 90 91 92 94 96 97 98 99 100 100 101 101 102 103 103 103 102 101 100 99 97 96 94 93 92 92
96 90 82 76 68 58 49 44 42 41 41 42 43 45 49 51 54 58 60 63 64 62 57 52 46 41 37 34 30 27 23 17 12 8 8 10 13 17 22 25 28 31 34 38 42 45 48 51 54 56 58 60 62 64 67 69 72 75 79 82 85 88 90 92 94 96 97 99 101 102 102 103 103 103 103 103 104 103 103 102 101 100 99 97 95 94 93
93 86 79 73 64 53 45 41 39 39 39 40 42 45 48 50 53 56 58 61 62 60 56 52 47 42 39 37 33 29 25 20 15 10 7 7 9 13 18 22 26 29 32 35 39 43 46 50 53 55 57 60 62 64 66 68 70 72 76 79 82 85 88 91 94 95 97 100 101 103 104 105 105 105 104 105 105 105 105 104 104 103 102 100 98 97 95
90 83 76 69 59 48 42 39 37 37 38 39 41 44 47 49 51 54 56 59 61 59 55 51 47 43 40 39 36 32 28 23 19 14 9 6 6 9 13 18 22 26 30 33 36 40 44 48 52 54 57 59 61 63 65 67 69 71 73 76 79 82 86 89 92 95 97 99 101 103 105 105 106 106 106 106 107 107 107 107 106 106 105 103 102 100 98
86 79 72 64 53 44 39 37 35 35 36 38 40 43 46 48 50 52 55 57 59 58 54 50 47 43 41 40 38 35 32 27 22 17 13 10 7 6 9 13 17 22 27 31 34 38 41 45 50 53 56 58 61 62 64 66 68 70 72 74 77 80 83 86 89 93 96 98 100 102 104 105 106 107 107 107 107 108 108 108 108 108 108 107 105 104 102
83 75 68 58 48 40 37 35 33 34 35 37 39 42 44 47 49 51 54 56 57 56 53 49 46 43 41 39 38 36 34 31 26 21 16 13 10 8 7 9 13 18 23 27 31 35 39 42 47 51 55 58 60 62 64 66 68 69 71 73 75 78 80 83 87 90 94 97 99 101 103 104 106 107 108 108 109 109 109 109 110 110 110 109 108 107 106
78 71 62 52 43 37 35 33 31 32 35 37 38 41 44 47 49 51 53 55 56 55 51 47 45 42 40 38 37 36 35 32 29 24 19 15 12 9 8 7 9 13 18 23 28 32 36 40 44 47 52 55 59 62 64 66 67 69 70 72 74 76 79 81 84 87 91 94 97 100 102 103 105 107 108 109 110 110 110 110 110 111 111 111 111 110 109
74 66 57 47 39 35 32 30 30 31 34 37 39 41 43 46 49 50 52 53 55 54 50 46 43 41 39 37 36 35 33 32 31 28 23 19 14 11 9 7 7 10 13 19 24 28 33 37 41 45 48 52 56 60 63 65 67 69 70 71 73 75 77 79 82 85 88 91 94 98 100 102 104 106 108 109 111 111 112 112 111 111 112 112 113 113 113
69 61 51 42 37 34 31 29 28 30 33 36 39 41 43 46 48 49 51 52 53 52 49 45 42 40 38 36 35 34 32 30 29 29 27 23 19 15 12 9 7 8 10 14 19 24 28 33 37 42 46 49 53 57 60 63 66 68 70 72 73 74 76 78 80 83 85 88 91 94 98 100 103 105 107 109 110 112 113 114 113 113 113 114 114 115 115
64 55 46 38 34 32 29 27 27 29 32 36 38 41 42 45 47 48 50 51 52 51 48 44 41 40 38 36 35 34 33 31 28 27 27 26 23 20 17 14 11 8 8 11 14 19 23 28 33 38 42 46 50 53 57 60 63 66 69 71 73 75 76 78 79 81 83 85 88 91 94 98 101 103 105 107 110 112 113 114 114 115 116 116 116 116 116
59 50 41 35 32 30 28 26 25 28 31 35 38 40 42 44 46 47 49 50 51 49 46 42 39 39 39 37 35 34 34 32 30 28 28 27 26 23 21 18 16 13 11 10 11 15 19 23 28 33 38 42 46 50 54 57 60 63 66 69 72 74 76 78 79 80 82 84 86 88 91 94 97 100 102 105 108 110 112 113 115 116 117 118 118 118 118
53 45 37 32 30 29 26 24 24 27 30 35 38 40 41 44 46 47 48 50 50 49 44 40 37 36 36 37 36 35 35 33 32 31 30 29 28 26 23 21 19 17 16 14 12 12 15 19 23 28 33 38 42 46 50 54 57 60 63 66 69 72 74 77 78 80 81 83 85 87 89 91 93 95 98 101 104 106 109 112 115 116 118 119 119 120 120
48 40 33 30 28 26 24 23 24 27 31 35 38 39 40 43 45 46 48 49 50 49 43 38 36 35 35 36 36 35 35 34 33 32 32 32 31 29 27 24 21 19 19 18 16 14 14 16 19 24 28 33 38 42 46 50 54 57 60 63 66 69 72 74 77 79 81 83 84 86 88 89 91 92 95 97 99 102 105 108 111 113 116 119 120 121 121
43 35 30 28 26 24 23 22 24 28 31 35 38 39 40 42 44 46 48 49 50 48 43 37 34 34 35 36 36 36 36 35 33 32 33 34 33 32 30 28 25 22 20 19 19 19 18 17 17 20 24 29 34 38 43 46 50 53 57 60 63 66 69 71 74 76 79 81 83 85 87 89 89 91 92 94 96 98 101 103 106 109 113 116 118 120 121
38 32 28 26 25 23 21 21 24 28 31 35 38 39 39 41 44 46 48 49 49 47 42 36 33 33 35 36 36 37 37 36 34 33 34 35 35 34 33 30 28 26 24 20 19 20 21 20 19 19 21 25 30 35 39 43 47 50 53 56 59 62 65 68 71 73 76 78 81 83 85 88 89 90 92 93 94 96 98 99 102 104 107 110 114 117 119
34 30 27 25 24 22 20 20 23 28 32 35 37 39 39 41 43 45 47 49 48 46 41 36 32 32 34 35 36 37 37 36 34 34 35 36 36 36 35 33 31 29 28 25 22 21 21 22 23 23 22 24 27 30 35 40 44 47 50 53 56 59 62 65 67 70 73 76 78 80 82 85 87 89 91 92 93 95 96 98 99 101 103 105 108 111 115
31 29 26 25 23 21 18 19 23 28 31 34 36 38 40 42 43 45 47 48 46 44 40 36 33 33 34 35 37 37 37 35 35 35 37 37 38 38 38 36 34 31 30 29 27 24 22 22 23 25 26 26 27 28 31 35 39 43 47 51 53 56 59 61 64 67 70 72 75 77 80 82 85 87 88 90 92 94 95 97 98 99 100 102 104 106 109
30 28 26 24 23 19 17 20 24 28 31 33 35 38 40 42 43 45 47 47 44 40 37 35 34 34 35 36 37 38 37 36 36 37 38 39 39 39 39 39 36 33 32 31 30 28 25 23 23 24 27 29 29 28 29 31 35 40 44 48 51 53 56 59 61 64 66 69 72 74 76 79 82 84 85 87 89 91 93 95 96 97 98 100 101 103 105
28 26 25 24 21 17 17 20 24 29 32 33 35 38 40 42 44 46 47 46 42 38 35 34 35 35 35 37 38 38 37 37 37 38 38 39 40 41 41 40 38 36 34 33 32 31 29 27 24 23 26 29 31 30 29 30 33 37 41 45 48 50 53 56 58 60 63 67 70 71 72 76 79 81 82 84 86 87 89 91 93 95 96 98 99 100 102
27 26 25 22 19 17 18 21 25 29 32 34 36 38 40 42 44 47 47 46 41 36 33 33 34 35 35 37 39 38 38 38 38 38 39 40 41 42 42 41 40 37 35 35 35 34 33 31 27 24 24 27 30 31 32 33 33 35 39 43 44 46 49 52 55 57 61 65 66 66 69 73 76 77 78 80 82 83 85 86 88 90 92 94 96 97 99
27 26 23 20 18 17 19 23 27 30 32 34 37 39 41 43 46 48 47 44 39 36 34 34 34 35 37 38 39 38 38 38 39 40 40 41 43 43 43 42 40 38 37 36 36 36 36 34 30 26 24 25 26 27 30 33 34 36 40 40 40 42 45 48 51 55 60 63 62 61 64 69 72 72 74 76 77 79 81 82 84 85 87 90 92 94 96
27 24 20 17 17 18 21 24 28 31 33 35 38 40 42 45 47 48 47 43 38 35 35 35 35 36 38 39 38 38 38 39 40 41 42 44 46 46 44 43 41 38 37 37 37 36 37 36 33 30 27 27 25 24 27 30 33 37 41 38 35 37 42 45 49 53 58 60 58 57 61 66 68 69 70 72 73 75 76 78 79 81 83 85 87 89 91
25 21 17 16 16 18 22 25 28 31 34 36 38 40 43 46 48 48 45 40 37 35 35 35 37 38 40 39 39 39 41 41 41 42 44 47 48 48 46 44 42 39 38 38 37 37 37 37 35 33 32 30 27 25 25 27 30 36 39 35 33 36 40 43 46 50 54 56 55 55 58 63 65 66 66 67 69 71 73 75 76 77 78 80 82 84 86
22 18 16 15 17 19 22 26 29 32 35 37 39 41 45 47 48 47 43 39 36 36 36 36 38 40 40 39 39 40 42 43 43 44 46 48 49 48 46 44 42 41 41 41 40 39 38 37 36 34 33 32 29 27 26 26 29 35 36 33 33 37 38 39 42 45 48 52 52 53 56 60 61 62 63 63 65 67 70 72 73 74 75 76 77 78 80
18 15 15 15 17 20 24 27 30 33 35 37 40 43 46 48 48 45 40 37 36 36 36 37 38 39 39 39 40 41 43 43 44 46 48 49 49 48 45 43 42 41 41 41 40 39 38 37 36 34 33 31 29 28 27 28 30 33 32 31 33 35 36 37 39 40 42 45 47 49 52 55 57 59 61 61 62 64 66 68 70 71 72 73 73 74 75
14 13 14 15 18 21 25 28 31 34 36 38 41 44 47 48 46 43 38 36 36 37 38 38 38 38 39 40 42 43 44 44 45 47 49 50 50 48 45 43 42 42 41 40 40 38 36 35 35 34 32 30 28 28 28 28 29 30 30 29 31 33 34 36 37 37 38 40 43 45 48 50 51 54 57 58 59 61 62 64 66 67 68 69 70 71 72
12 12 14 16 19 22 26 30 33 35 37 40 43 46 48 47 44 40 37 36 36 37 39 40 39 39 41 43 44 44 45 46 47 50 51 51 50 49 47 45 43 42 42 41 40 38 35 34 33 32 31 29 28 28 28 27 27 28 28 29 30 31 32 34 35 35 36 38 40 42 44 45 47 48 50 51 53 55 58 60 62 63 65 66 66 68 69
11 12 14 16 20 24 27 31 34 36 38 41 44 46 47 45 41 37 36 36 37 38 39 39 39 40 43 46 47 46 46 47 49 52 53 53 51 50 48 47 46 44 43 42 40 38 35 33 31 31 30 28 27 26 26 26 26 27 28 29 30 31 32 32 33 34 35 37 38 39 40 41 42 42 43 44 46 49 51 55 57 59 61 63 65 65 66
11 13 15 18 21 25 29 33 35 37 39 42 45 47 46 42 38 35 35 36 37 37 37 38 39 41 43 46 48 48 48 49 52 54 54 54 53 51 49 48 48 46 45 43 41 38 35 32 30 30 29 27 25 25 25 25 25 26 27 28 29 30 31 31 32 33 34 35 36 37 37 38 38 39 39 41 43 45 48 50 52 54 57 60 62 63 62
11 14 16 19 23 27 31 34 35 38 41 43 45 46 43 38 34 33 34 35 36 36 36 37 39 42 43 44 46 48 50 51 54 55 56 55 54 51 50 49 49 48 46 44 40 37 35 32 31 30 28 26 25 24 25 25 25 25 26 26 27 28 29 29 30 31 33 34 35 36 37 37 37 37 38 39 41 43 44 45 47 49 53 56 59 59 58
12 15 17 21 24 29 32 35 36 39 42 44 46 44 40 35 32 33 34 34 35 35 36 38 40 42 43 43 45 47 49 52 55 56 56 55 53 52 51 50 49 48 46 43 40 37 34 32 30 29 28 26 25 24 25 25 25 25 25 25 25 26 26 27 29 30 32 34 35 35 36 35 35 36 37 39 39 40 41 42 44 47 50 52 54 53 52
14 16 19 22 26 30 34 36 38 40 42 45 45 41 36 32 31 31 32 33 34 35 37 38 40 42 44 45 46 47 49 52 55 56 56 55 53 52 51 51 49 48 46 43 40 37 35 33 31 29 27 26 25 24 24 24 24 25 25 25 25 25 26 27 28 29 31 32 33 34 33 33 33 34 36 37 37 38 38 40 42 44 47 48 49 48 46
16 18 20 23 27 32 35 37 39 41 43 44 42 38 33 30 29 30 31 32 34 36 38 40 42 44 45 47 48 50 51 54 56 56 56 54 53 52 51 51 50 48 45 43 40 37 35 33 32 30 28 26 25 23 23 23 23 24 24 24 24 25 26 27 28 29 30 31 32 32 31 30 31 33 34 34 35 36 37 39 40 42 43 44 44 42 41
18 19 22 25 28 33 36 38 40 42 43 43 40 34 30 28 28 30 32 34 36 38 41 43 45 47 48 49 50 52 54 56 56 56 55 54 53 52 52 51 50 48 45 42 40 38 36 34 32 30 29 27 26 24 23 23 23 23 23 23 24 24 25 26 27 28 29 30 31 30 30 30 31 32 32 32 33 34 36 37 38 39 40 41 40 38 38
19 20 23 26 30 34 37 38 40 42 43 41 37 32 28 27 28 31 34 37 39 42 44 46 48 49 51 51 52 54 55 57 57 57 56 54 53 53 52 52 50 48 45 42 40 39 38 36 33 31 29 27 27 26 24 23 23 23 23 23 23 24 25 26 27 28 28 29 29 29 29 30 30 31 31 31 31 32 34 35 35 36 37 37 37 36 36
20 22 24 27 31 34 37 38 40 42 42 39 34 30 28 28 30 33 36 38 41 44 46 49 50 52 53 53 54 55 57 58 58 57 56 55 53 53 53 52 50 48 45 43 40 39 38 37 35 33 30 28 27 27 26 25 25 24 24 24 24 24 25 25 26 27 27 28 28 28 28 29 30 30 31 31 30 31 32 33 33 33 34 35 35 35 35
21 23 25 29 32 35 37 39 41 42 41 37 32 29 28 30 32 35 37 39 42 45 47 50 52 53 54 55 56 57 59 60 59 58 56 55 54 53 53 51 49 47 45 43 41 39 37 37 36 35 33 30 27 26 26 26 26 26 26 26 25 25 26 26 26 26 27 27 27 27 28 29 29 30 31 30 29 30 31 31 30 30 32 33 33 33 33
22 24 27 30 33 36 38 40 42 42 39 35 31 29 30 32 34 36 38 40 44 47 49 51 53 54 55 56 57 59 60 60 59 57 56 55 54 54 53 51 49 47 45 44 41 38 37 36 36 36 34 32 30 28 27 26 26 26 26 26 26 26 26 26 26 26 27 28 27 27 27 27 28 29 30 29 28 28 30 29 28 29 30 31 31 31 32
23 25 29 32 35 37 39 41 42 41 37 32 30 30 32 33 35 37 39 41 44 48 50 53 54 55 56 58 59 60 61 61 59 57 56 55 55 55 53 51 48 46 44 43 41 39 36 36 36 36 34 33 32 31 30 28 27 27 27 26 26 26 26 26 25 26 27 28 27 26 26 25 26 28 29 28 27 28 28 28 27 27 28 28 29 30 30
24 27 30 33 36 38 40 42 42 39 34 30 30 31 33 35 37 39 42 44 47 49 51 53 55 56 58 59 60 62 62 61 59 57 56 55 55 55 53 51 49 46 43 42 41 40 37 35 35 35 34 33 32 32 31 30 29 29 28 27 26 26 26 25 25 26 27 28 27 26 25 24 24 26 27 27 26 27 27 27 26 26 26 26 27 28 28
25 28 31 34 36 38 40 42 41 36 31 29 29 32 34 35 38 41 44 46 48 50 52 54 55 57 58 60 62 63 63 61 59 57 55 55 54 54 52 50 48 46 44 41 40 39 37 36 34 34 33 32 32 31 31 30 30 29 29 28 27 26 25 25 24 25 26 26 27 26 25 24 24 25 26 26 26 26 26 26 26 26 25 25 25 26 26
26 29 32 34 36 38 40 41 39 33 29 28 30 32 33 35 37 41 44 46 49 51 53 55 57 58 60 61 63 63 63 61 58 57 56 55 54 52 50 48 46 45 44 42 40 38 37 35 34 34 33 32 31 31 31 30 30 29 28 27 27 26 26 25 24 24 24 24 25 26 26 25 23 24 25 26 26 25 25 25 25 25 25 24 24 25 25
27 30 32 34 37 39 40 40 35 30 27 29 31 33 34 36 38 41 44 46 48 51 54 56 58 59 61 62 63 63 63 61 58 57 56 55 54 52 50 48 46 46 45 43 41 39 37 36 34 33 33 32 31 30 30 29 29 28 28 27 27 27 26 25 24 23 23 22 22 24 27 26 23 22 24 26 25 25 24 24 24 24 24 24 24 25 25
28 30 32 35 37 39 40 37 32 27 27 29 31 33 35 37 39 41 44 46 49 51 54 57 59 60 61 62 63 63 62 60 58 57 57 57 56 54 52 49 47 46 45 44 43 41 40 38 36 34 33 33 32 31 30 29 28 27 27 27 27 27 27 26 24 22 22 21 20 22 26 27 24 22 23 25 25 24 24 24 23 24 24 24 24 24 24
28 30 32 35 38 39 38 34 29 27 28 30 32 33 35 37 39 43 45 47 49 52 55 57 59 60 61 62 63 63 61 59 58 58 58 57 56 54 52 49 46 44 43 42 41 40 39 38 36 35 33 32 32 32 31 30 28 27 26 26 26 25 25 25 24 22 20 19 18 21 26 27 23 21 22 23 24 23 23 23 23 24 24 24 24 25 24
Wind_Direction
346 346 345 343 342 342 343 343 343 342 341 343 346 349 353 355 356 358 1 4 4 2 359 358 358 358 354 345 336 321 291 258 237 221 214 212 211 211 211 211 211 211 211 210 210 212 213 214 215 216 216 216 216 215 215 215 216 216 217 216 215 215 216 217 218 219 221 222 222 223 223 224 224 225 225 225 225 225 225 225 225 225 226 226 227 227 228
345 345 344 342 341 342 342 343 343 341 341 343 346 350 353 355 355 358 1 3 5 5 3 2 1 1 358 351 340 326 304 270 246 231 219 214 213 212 211 211 211 211 211 211 210 210 211 213 214 215 216 217 218 218 218 217 216 216 216 216 215 215 215 216 217 218 220 221 222 223 223 224 224 225 225 225 225 225 225 225 225 225 225 225 226 226 227
344 344 343 342 341 341 342 343 343 341 340 343 346 350 353 354 355 357 360 2 5 6 5 5 5 5 2 356 346 331 313 286 257 240 228 219 215 214 213 212 211 211 211 212 212 211 211 212 213 214 215 216 216 218 219 220 220 219 217 216 215 215 216 216 216 217 219 220 221 222 223 224 224 225 225 226 226 226 225 226 226 226 226 225 225 226 226
343 342 342 341 340 341 342 342 342 340 340 343 347 350 352 354 355 357 359 1 4 6 6 7 7 8 6 1 352 339 320 298 272 250 236 226 220 217 216 215 214 212 212 212 212 212 212 213 213 214 214 215 215 216 218 219 221 222 221 219 217 216 216 216 217 218 219 220 221 222 223 223 224 225 225 226 226 226 226 226 226 226 226 225 225 225 226
342 341 341 340 340 341 342 342 341 339 340 344 347 350 352 354 355 357 358 1 3 4 5 7 8 9 9 6 359 347 330 308 285 263 247 235 226 221 219 217 216 215 214 214 214 213 213 214 214 214 215 215 215 215 216 217 219 220 222 222 221 220 218 218 218 218 219 220 222 222 223 223 224 225 226 226 226 226 226 226 226 226 226 226 225 225 226
341 341 340 340 339 341 341 341 340 338 340 344 348 350 352 353 354 356 358 360 2 3 4 5 8 10 10 9 6 357 342 321 295 273 257 244 234 227 223 220 219 218 216 215 216 215 215 214 215 216 216 216 216 216 216 216 217 218 219 221 222 222 221 220 219 219 219 221 222 223 224 225 225 225 226 227 227 227 227 227 227 227 227 226 226 226 226
340 340 339 339 339 340 341 340 338 338 339 344 348 350 351 352 354 356 357 359 1 2 3 4 7 10 10 9 9 6 357 339 313 284 264 251 241 235 229 224 222 220 219 217 217 217 217 216 216 216 217 217 218 218 218 218 218 218 218 219 219 220 221 221 220 220 220 221 222 223 224 225 226 226 227 227 228 228 228 228 228 228 228 227 227 226 226
339 339 338 338 339 341 341 338 337 337 338 343 348 350 351 352 353 355 357 358 360 1 2 3 6 9 11 10 10 8 5 354 333 303 276 258 246 240 236 231 226 223 221 220 219 219 218 218 218 217 217 218 218 218 219 220 220 220 220 219 219 219 219 220 220 220 220 221 221 223 224 225 225 226 227 228 228 229 229 230 230 229 229 228 228 227 227
338 337 337 337 339 340 339 337 336 336 338 343 347 350 351 352 353 354 356 357 359 359 0 1 4 8 10 11 11 10 9 3 350 325 296 273 256 246 240 237 233 228 224 223 222 221 221 221 221 220 219 219 219 219 219 220 221 222 222 222 221 220 220 219 219 220 220 220 221 222 223 224 224 225 226 227 228 229 230 230 230 230 230 230 229 229 228
337 336 336 337 339 339 338 336 335 336 338 342 347 350 351 352 353 354 355 356 357 358 359 360 2 6 8 9 10 11 11 9 2 348 320 288 268 256 247 241 238 234 230 226 224 223 223 223 223 223 222 221 220 220 220 220 221 222 222 223 223 222 222 221 220 220 221 221 221 222 223 223 224 224 225 226 227 227 229 230 230 231 231 231 230 230 229
335 335 336 337 338 338 336 335 335 335 338 342 346 349 350 351 352 353 354 355 356 357 358 359 1 4 6 7 8 10 11 12 9 1 348 318 277 261 254 247 242 239 235 232 228 225 224 224 224 224 224 224 223 222 222 221 221 222 222 223 223 223 223 223 222 222 221 222 222 223 223 224 224 225 225 225 226 227 227 228 229 230 231 231 231 231 231
334 334 335 336 337 336 334 334 334 335 338 342 346 348 349 350 351 352 353 354 355 356 357 357 359 1 3 5 6 7 9 11 12 9 1 348 322 279 255 249 246 242 239 236 233 229 227 225 225 225 226 225 225 225 224 223 223 222 223 223 224 224 224 224 224 224 223 223 223 223 224 225 225 226 226 226 226 227 227 228 228 229 230 231 231 231 231
333 334 334 336 336 334 333 333 333 334 337 341 345 347 347 349 350 351 352 353 354 355 356 356 357 359 0 2 3 4 6 7 9 11 9 2 348 324 288 257 246 243 241 239 236 234 232 228 226 226 227 227 227 226 226 226 225 224 224 224 224 225 225 225 225 225 225 225 224 225 225 225 226 227 227 227 227 228 228 228 228 229 230 230 231 231 231
332 333 334 335 334 332 331 331 331 333 336 340 344 346 346 348 349 350 351 351 352 354 354 354 355 356 358 359 360 1 2 3 5 6 9 10 5 349 324 291 259 245 241 240 238 237 235 233 231 228 228 228 229 228 228 228 227 227 226 226 225 225 226 226 226 226 226 226 226 226 226 226 227 227 228 228 228 228 228 228 229 229 230 230 231 231 232
332 333 334 333 331 330 330 329 330 333 336 340 344 344 344 346 348 349 350 350 350 352 353 353 353 354 355 356 358 359 359 360 1 1 3 5 7 4 351 323 289 262 246 241 239 238 237 236 235 233 231 229 229 230 230 229 229 229 228 228 227 227 227 227 227 227 227 227 227 227 227 227 228 228 229 229 229 229 229 229 229 229 230 230 231 231 232
332 333 332 331 329 328 328 328 329 333 336 340 343 343 343 344 346 347 348 348 349 350 351 351 351 352 353 353 355 357 357 358 358 357 358 359 360 1 359 348 322 290 265 250 243 240 238 237 236 236 235 233 231 231 231 231 231 230 230 229 229 229 228 228 228 228 228 228 228 228 228 228 228 229 229 230 230 230 231 230 230 230 230 230 231 231 231
332 332 331 328 327 327 326 327 329 332 337 341 342 342 341 341 344 346 347 347 347 348 349 349 349 349 350 352 354 354 354 355 355 355 355 355 354 354 353 349 340 319 289 266 254 247 242 240 238 237 237 236 235 233 232 232 232 232 232 231 231 230 230 230 229 229 229 230 230 229 229 229 229 229 230 230 231 231 232 232 231 231 231 231 231 231 231
331 331 329 326 326 325 325 326 329 332 337 340 341 340 339 340 342 344 345 345 346 346 347 348 347 346 347 349 351 352 352 352 351 351 351 351 350 350 348 345 339 331 316 289 267 256 249 245 242 239 238 237 237 236 235 234 233 233 233 233 233 232 232 232 231 231 231 231 231 231 231 230 230 230 230 231 231 232 232 232 232 232 232 232 232 232 232
330 330 328 325 325 324 323 324 328 332 336 338 339 340 339 338 341 343 344 344 345 346 346 346 345 344 344 345 347 348 349 349 348 347 347 347 346 346 344 342 338 333 325 313 292 269 257 251 247 244 241 239 238 238 238 237 235 234 234 234 234 234 234 233 233 233 232 232 232 232 232 231 231 231 231 231 232 232 232 233 233 233 233 233 233 233 233
330 329 327 325 324 322 319 324 330 332 334 336 338 339 338 338 340 342 342 342 343 344 345 344 343 341 341 343 344 344 345 346 345 343 343 343 343 342 341 340 337 332 326 320 310 294 275 262 252 248 245 242 240 238 238 238 238 237 236 235 234 234 235 235 235 234 234 234 233 233 233 233 233 233 233 232 232 232 233 233 233 234 234 234 234 234 233
329 328 326 324 322 317 317 325 331 332 333 335 337 338 337 338 339 341 341 341 341 342 344 344 341 338 338 340 341 341 341 341 341 340 340 340 339 339 340 339 336 332 327 322 316 307 296 281 266 254 248 245 242 240 238 237 237 238 238 237 236 235 235 235 236 235 235 235 235 235 235 234 234 234 234 234 234 233 233 233 234 234 234 235 235 235 234
327 326 325 323 317 312 317 327 331 331 333 335 336 336 337 338 340 341 340 340 339 340 342 343 340 335 335 337 338 338 338 338 336 336 336 336 336 336 337 338 337 333 328 322 316 309 303 294 282 268 256 248 244 242 240 238 237 237 237 238 238 237 237 236 236 236 236 236 236 236 236 236 236 235 235 234 234 234 234 234 234 234 234 235 235 236 235
325 324 323 319 312 309 317 328 332 332 334 335 335 335 336 338 339 340 340 339 337 337 339 341 338 335 333 335 335 335 335 335 332 331 332 333 334 335 335 336 337 334 329 323 317 310 304 298 290 281 270 257 249 244 242 240 239 238 237 237 237 238 238 238 238 237 237 237 237 237 237 237 237 236 236 236 235 235 235 235 234 234 235 235 235 235 236
323 322 320 314 308 308 318 329 333 333 333 335 335 334 335 337 338 339 339 338 336 335 336 337 337 335 334 334 334 334 334 332 330 329 330 331 333 334 335 335 335 333 329 324 318 312 306 299 292 286 279 270 259 251 246 243 241 240 239 238 237 237 238 238 238 238 238 238 238 238 238 238 238 238 237 237 236 236 236 236 235 235 235 235 235 235 236
321 319 315 310 307 310 321 330 332 333 334 335 335 334 334 336 337 338 338 337 335 334 333 334 336 336 335 334 334 334 334 331 329 329 330 332 334 335 335 334 333 331 328 324 319 315 310 303 294 287 282 277 270 260 253 248 245 241 240 239 238 237 237 238 238 239 239 239 239 238 239 239 239 239 239 238 238 237 237 237 237 236 235 235 235 235 236
318 315 310 308 310 316 325 332 333 334 335 335 334 333 334 335 336 337 337 336 335 334 332 332 334 335 335 335 334 334 333 331 330 331 333 334 336 336 335 334 331 330 328 324 320 317 313 306 298 288 280 276 273 269 263 257 251 246 243 241 239 238 237 238 239 239 239 240 240 239 239 240 240 240 240 240 240 239 239 238 238 238 237 236 236 235 235
315 311 309 312 317 321 328 333 334 334 335 335 334 333 334 334 336 336 335 335 334 333 332 332 333 334 336 335 334 334 333 331 331 333 334 336 337 336 335 333 330 329 327 325 321 318 314 308 302 291 278 270 268 268 268 264 259 254 248 242 239 239 239 239 239 240 240 240 240 240 240 241 241 241 241 241 241 241 240 240 239 239 239 238 238 237 236
313 311 312 316 319 323 329 334 335 335 335 334 333 333 334 335 335 335 334 334 334 332 331 333 334 334 335 335 333 332 331 331 332 334 335 337 338 336 335 332 329 328 327 324 321 318 314 310 305 298 287 276 268 263 262 262 261 260 255 247 240 239 239 239 240 241 241 242 241 240 241 243 243 243 243 243 243 243 242 242 241 240 240 239 239 238 237
313 313 314 316 318 324 330 333 335 335 335 333 332 333 334 335 334 334 333 333 333 332 332 333 334 334 335 334 332 331 331 331 333 335 337 338 337 336 334 331 329 328 326 322 320 317 314 311 309 306 299 290 280 269 262 260 259 258 257 252 245 242 240 239 239 240 242 243 242 240 241 242 243 243 243 243 243 244 244 244 243 242 241 240 240 239 238
314 313 314 315 319 325 330 333 335 335 334 332 332 333 334 334 333 333 333 332 332 332 334 334 334 333 334 334 333 331 331 332 334 337 339 338 336 334 333 331 329 327 325 322 320 319 316 313 310 308 303 296 290 282 273 267 262 259 258 257 253 248 244 240 239 240 242 243 242 240 241 243 244 244 244 243 244 244 244 245 244 244 243 242 241 240 239
314 313 314 317 321 326 331 334 334 333 332 332 332 334 334 333 332 332 332 331 331 333 335 335 334 333 333 333 332 331 330 332 335 339 339 337 335 333 332 330 329 327 326 324 323 321 317 312 308 305 300 296 293 288 279 271 264 261 260 259 256 253 250 247 245 245 245 246 244 242 241 242 244 245 245 244 244 244 244 245 245 245 244 244 243 242 241
313 313 315 318 323 329 334 335 333 332 332 332 333 334 334 332 332 331 331 330 331 333 335 335 333 332 331 331 331 330 330 333 337 339 338 335 334 332 331 330 328 327 326 325 323 320 317 312 307 303 298 295 292 287 279 272 266 263 262 260 258 257 256 255 252 250 249 249 249 246 244 243 244 245 245 245 245 245 245 246 246 246 245 245 245 244 243
311 313 317 320 327 334 336 334 332 332 332 333 334 334 333 332 331 331 331 331 332 333 334 334 333 331 330 330 330 330 330 333 338 339 337 335 333 332 331 330 329 328 327 325 323 320 317 312 307 302 298 295 291 285 279 273 270 270 269 266 263 262 260 259 257 255 253 251 251 250 248 246 244 244 245 245 245 245 246 247 247 247 247 246 246 245 245
309 315 318 324 331 336 335 333 332 333 333 334 334 333 332 331 331 331 332 333 333 334 333 332 332 332 330 329 330 330 331 335 338 338 336 335 334 333 332 331 330 329 328 327 325 322 318 313 307 302 298 295 290 284 281 279 278 275 273 269 266 263 261 259 259 258 256 254 252 250 249 249 247 246 245 245 244 244 245 246 247 247 248 247 247 246 245
312 317 321 327 334 336 335 334 333 333 333 334 334 333 331 331 332 332 332 333 334 334 332 332 332 331 329 329 329 330 333 337 338 337 336 336 335 334 333 331 331 331 330 328 326 323 319 314 309 304 299 294 291 288 285 282 278 273 270 268 267 266 264 263 261 259 258 257 255 254 252 251 250 249 248 247 246 245 244 244 244 245 246 247 247 246 246
315 318 322 329 336 338 337 335 333 333 333 333 333 332 332 332 333 333 333 334 334 333 332 331 331 330 329 329 329 330 334 337 338 337 336 336 335 334 333 332 332 332 331 329 327 324 320 316 311 305 300 297 295 291 286 280 275 271 269 268 267 266 266 265 264 262 261 260 258 257 256 254 253 252 251 250 248 246 245 244 244 244 245 246 246 246 246
316 318 323 332 337 338 337 335 333 332 332 333 332 332 332 333 334 334 334 334 333 332 332 331 329 329 329 329 330 332 336 338 337 336 336 336 335 334 333 332 332 331 330 328 327 324 321 317 313 308 304 302 299 294 289 284 280 276 272 270 268 267 266 265 264 263 262 260 259 258 257 256 255 254 253 252 250 249 248 247 247 246 246 246 247 247 247
316 319 326 332 336 336 336 334 332 332 332 332 332 332 333 334 335 335 334 335 334 334 333 332 331 330 330 330 332 335 338 337 336 336 336 335 334 334 333 332 332 331 330 328 327 324 321 318 314 310 307 305 301 297 293 289 285 281 277 274 272 270 268 266 265 262 260 258 258 257 257 256 256 256 255 254 252 252 251 250 249 248 247 248 248 248 247
317 320 326 332 334 335 334 333 332 332 332 332 332 333 334 335 337 336 336 338 338 337 336 335 334 333 332 333 336 338 338 337 337 336 335 334 334 333 332 332 331 331 330 329 327 325 322 319 316 312 309 306 302 298 294 291 287 284 282 279 277 274 272 269 266 263 261 260 260 259 258 258 257 256 255 254 254 253 252 251 250 249 249 249 249 248 246
318 322 327 331 333 333 332 332 331 332 332 332 333 333 334 336 337 338 340 342 342 341 340 339 337 336 336 337 339 340 339 338 337 336 335 334 334 333 332 332 331 331 330 329 327 325 323 321 318 315 311 308 303 299 295 291 288 285 283 281 279 277 275 272 270 267 266 265 264 263 262 260 259 257 256 255 254 253 252 251 251 251 251 250 250 248 246
318 323 328 331 331 331 331 331 331 331 332 333 333 333 334 336 338 339 340 342 343 343 342 341 340 338 339 340 341 340 339 339 338 336 335 335 334 333 333 332 332 331 330 329 328 326 324 322 319 316 313 309 305 302 298 295 291 288 285 282 280 277 274 272 270 269 268 266 266 265 265 263 261 260 258 256 255 254 253 252 251 251 251 251 250 249 246
317 322 328 331 331 330 330 331 331 331 332 332 332 331 333 334 336 338 339 341 343 344 342 341 341 340 341 341 341 340 339 338 338 337 336 335 334 334 333 333 332 331 330 329 328 327 324 322 320 317 314 311 308 305 302 298 294 291 287 284 281 278 275 273 271 270 269 267 266 266 266 265 263 262 260 258 256 256 255 253 252 252 252 251 250 249 246
315 322 328 331 330 329 329 330 331 331 332 332 330 330 330 331 333 336 339 341 343 343 342 341 341 341 341 341 340 339 339 339 338 337 336 335 335 334 333 333 333 332 330 330 329 327 325 323 320 318 316 313 310 307 304 302 299 295 291 288 284 281 278 276 274 273 272 270 268 267 265 265 264 264 262 260 258 257 257 255 253 252 252 251 249 247 245
315 322 329 331 329 328 329 330 331 332 332 330 329 328 328 330 333 337 340 342 343 342 342 342 342 341 341 341 340 339 339 339 338 337 336 335 335 334 333 333 333 332 330 329 329 328 326 323 320 318 317 315 312 308 304 301 299 296 293 291 288 285 283 281 279 277 275 273 270 267 264 263 263 263 262 261 259 258 258 257 255 253 252 251 249 247 245
316 324 329 329 328 328 329 331 332 332 331 329 328 328 328 331 335 338 340 342 342 341 342 343 343 342 341 341 340 339 339 338 338 337 336 335 335 334 333 333 333 332 330 329 328 328 326 323 319 317 317 317 314 310 306 303 300 297 294 291 289 287 284 282 281 279 276 273 271 268 266 263 263 263 263 262 260 258 257 257 255 253 251 249 248 246 245
319 326 329 329 328 328 329 330 332 331 329 328 328 328 329 333 337 338 339 341 342 342 343 344 343 341 341 341 340 339 339 338 338 337 337 336 335 334 333 333 333 332 330 329 328 327 326 323 319 317 317 316 313 310 308 306 303 299 296 293 291 288 285 283 281 279 276 275 273 271 269 267 265 265 265 264 261 259 257 256 255 252 250 249 248 246 245
321 326 328 328 327 327 328 330 331 330 328 327 327 328 331 335 337 337 338 341 343 343 344 344 343 341 341 340 340 339 339 338 338 338 337 336 336 335 334 333 333 332 331 330 328 327 326 324 320 318 317 315 312 310 308 306 304 301 299 296 292 289 287 284 281 279 278 277 276 275 273 270 266 264 263 263 261 259 257 256 255 253 251 250 248 247 245
322 325 326 326 326 326 328 329 329 328 327 326 327 329 334 337 338 338 339 342 343 343 344 344 343 342 341 341 340 340 339 339 338 338 337 336 336 335 334 334 333 332 331 330 328 327 326 324 321 318 316 314 312 309 307 305 303 301 298 296 293 290 287 283 280 277 276 277 277 277 274 268 263 261 261 260 258 256 255 254 255 254 253 250 248 247 245
321 323 324 325 325 326 328 328 328 326 325 325 327 332 336 338 338 338 341 342 342 343 344 344 343 342 341 341 340 340 339 339 338 338 337 336 336 335 334 334 333 332 331 330 329 328 326 325 322 319 317 314 312 310 307 305 303 300 298 296 293 290 287 284 281 278 276 274 274 275 274 268 261 258 258 258 256 255 253 252 252 253 252 249 247 245 244
319 321 322 324 324 326 328 328 326 324 323 325 329 334 337 338 338 340 341 342 342 343 344 344 343 342 342 341 341 340 339 339 339 338 337 336 336 336 336 336 336 335 333 332 331 330 328 326 324 321 318 315 313 310 307 304 302 300 299 297 294 292 289 286 283 281 278 275 271 271 271 269 263 257 256 255 254 253 251 249 249 250 250 248 244 242 241
317 319 321 323 324 326 328 327 324 321 321 326 331 335 336 337 339 341 342 342 343 343 343 343 343 343 342 342 341 340 340 340 339 339 338 338 338 338 338 337 337 336 334 333 332 331 329 328 326 323 320 317 314 312 309 307 304 302 300 297 295 294 292 291 288 285 281 276 270 267 268 268 264 259 256 254 252 249 248 247 246 246 246 244 241 238 237
316 318 321 322 324 326 328 326 321 319 322 328 332 335 337 339 341 341 341 342 342 342 342 343 343 343 342 341 341 341 341 340 340 340 340 340 339 337 336 336 336 336 335 334 332 330 328 326 324 322 320 317 315 313 311 309 308 306 303 299 296 294 293 292 291 288 284 280 274 268 267 267 265 260 256 254 250 247 245 244 242 242 241 240 237 234 232
Height
10706 10698 10689 10681 10674 10667 10660 10653 10647 10641 10635 10629 10624 10619 10613 10607 10602 10595 10588 10580 10573 10565 10558 10553 10549 10547 10544 10542 10541 10541 10542 10542 10543 10544 10545 10547 10549 10551 10554 10557 10560 10564 10567 10572 10577 10581 10586 10591 10597 10603 10608 10613 10617 10622 10627 10633 10639 10646 10654 10662 10671 10679 10686 10692 10699 10707 10715 10723 10730 10738 10745 10753 10760 10767 10775 10782 10789 10797 10805 10813 10819 10824 10830 10837 10843 10849 10855
10703 10694 10686 10678 10671 10664 10658 10651 10645 10639 10633 10628 10622 10617 10612 10607 10601 10595 10588 10582 10575 10567 10561 10556 10551 10548 10545 10543 10541 10540 10541 10541 10542 10543 10544 10545 10547 10549 10552 10554 10558 10561 10565 10569 10573 10577 10581 10586 10591 10597 10603 10609 10615 10620 10625 10630 10634 10639 10646 10654 10663 10670 10676 10683 10691 10698 10706 10713 10721 10729 10737 10745 10751 10758 10765 10772 10780 10788 10795 10802 10808 10814 10821 10828 10834 10841 10848
10699 10690 10682 10675 10668 10661 10655 10649 10643 10637 10632 10627 10621 10616 10611 10606 10600 10594 10588 10582 10575 10568 10563 10557 10553 10549 10546 10543 10541 10540 10539 10540 10541 10542 10543 10544 10546 10547 10550 10552 10555 10558 10561 10565 10569 10573 10577 10581 10586 10592 10597 10603 10610 10616 10622 10628 10633 10637 10641 10648 10656 10663 10670 10677 10684 10690 10697 10705 10713 10720 10728 10736 10742 10748 10755 10762 10770 10777 10785 10791 10798 10804 10812 10820 10826 10833 10839
10695 10687 10679 10671 10664 10658 10652 10646 10641 10636 10631 10626 10620 10615 10610 10605 10599 10593 10587 10581 10574 10569 10563 10558 10553 10549 10546 10544 10542 10540 10539 10539 10539 10540 10541 10543 10544 10546 10548 10550 10553 10556 10559 10562 10566 10570 10573 10577 10581 10586 10591 10596 10602 10608 10615 10621 10628 10634 10640 10646 10653 10659 10665 10672 10679 10685 10692 10698 10705 10711 10718 10726 10732 10738 10745 10751 10759 10767 10774 10780 10787 10794 10803 10810 10817 10824 10829
10691 10683 10675 10667 10661 10655 10649 10644 10639 10634 10630 10625 10620 10614 10609 10604 10599 10593 10587 10580 10574 10568 10563 10559 10555 10550 10547 10544 10542 10540 10539 10538 10538 10539 10539 10541 10543 10544 10546 10548 10550 10553 10556 10559 10562 10566 10569 10573 10577 10581 10585 10590 10594 10600 10606 10612 10619 10626 10634 10642 10649 10656 10662 10668 10675 10681 10688 10694 10699 10705 10711 10717 10723 10729 10735 10741 10749 10756 10763 10769 10777 10785 10792 10800 10808 10814 10818
10687 10678 10671 10664 10658 10652 10646 10641 10637 10632 10628 10624 10619 10613 10608 10603 10599 10593 10587 10581 10575 10569 10564 10560 10556 10551 10548 10545 10542 10540 10539 10538 10537 10537 10538 10539 10540 10542 10544 10546 10548 10550 10553 10556 10559 10562 10566 10569 10573 10577 10581 10585 10589 10594 10598 10603 10609 10615 10622 10631 10640 10648 10656 10663 10670 10676 10683 10688 10693 10698 10704 10710 10716 10721 10727 10733 10740 10747 10753 10759 10767 10774 10782 10790 10799 10804 10808
10682 10674 10667 10660 10654 10649 10643 10638 10634 10630 10627 10623 10619 10614 10608 10603 10598 10592 10587 10581 10575 10570 10565 10560 10556 10552 10548 10545 10542 10540 10538 10537 10536 10536 10536 10537 10538 10539 10541 10543 10545 10547 10550 10553 10555 10558 10561 10565 10568 10571 10575 10580 10585 10589 10593 10597 10602 10606 10612 10619 10627 10635 10643 10652 10660 10667 10674 10680 10685 10690 10696 10702 10707 10713 10720 10726 10732 10738 10745 10751 10757 10764 10772 10781 10788 10793 10798
10676 10670 10663 10657 10651 10645 10640 10636 10632 10628 10625 10622 10618 10613 10608 10603 10597 10592 10586 10580 10575 10569 10565 10560 10556 10553 10549 10546 10543 10540 10538 10537 10535 10535 10535 10535 10536 10537 10538 10540 10542 10544 10547 10549 10552 10554 10557 10560 10563 10566 10570 10574 10579 10584 10589 10593 10597 10601 10606 10611 10618 10624 10632 10639 10647 10654 10662 10668 10674 10679 10685 10690 10696 10703 10710 10717 10723 10729 10735 10742 10748 10754 10762 10770 10777 10783 10788
10671 10665 10659 10653 10648 10642 10638 10634 10630 10626 10623 10620 10616 10612 10607 10602 10597 10591 10586 10580 10575 10570 10565 10561 10557 10553 10550 10547 10544 10541 10538 10536 10535 10534 10534 10534 10534 10535 10535 10537 10538 10541 10544 10546 10548 10551 10554 10556 10559 10562 10565 10569 10573 10577 10582 10586 10591 10596 10601 10606 10611 10617 10623 10630 10636 10643 10649 10656 10661 10667 10672 10677 10683 10691 10699 10706 10712 10718 10724 10731 10736 10742 10750 10758 10766 10772 10778
10666 10660 10654 10649 10644 10639 10635 10631 10628 10624 10621 10618 10614 10610 10606 10601 10596 10591 10586 10581 10575 10570 10565 10561 10557 10553 10550 10547 10544 10542 10539 10537 10535 10534 10533 10533 10533 10533 10533 10534 10536 10537 10540 10542 10545 10547 10550 10552 10555 10558 10561 10564 10567 10571 10575 10579 10584 10588 10593 10598 10604 10610 10616 10621 10627 10633 10639 10645 10650 10655 10659 10664 10671 10679 10686 10692 10699 10705 10712 10718 10724 10731 10738 10745 10753 10760 10766
10662 10656 10650 10645 10640 10636 10632 10629 10626 10622 10619 10616 10612 10608 10604 10600 10596 10591 10586 10581 10575 10570 10565 10561 10557 10554 10550 10547 10544 10542 10539 10537 10535 10533 10532 10532 10531 10531 10532 10532 10533 10534 10536 10538 10540 10543 10545 10547 10550 10552 10555 10558 10562 10566 10569 10573 10577 10581 10585 10590 10595 10601 10607 10613 10618 10624 10629 10635 10640 10645 10650 10655 10662 10668 10674 10680 10686 10693 10700 10706 10712 10719 10725 10733 10741 10749 10755
10657 10651 10646 10641 10637 10632 10629 10626 10623 10620 10617 10614 10611 10607 10603 10599 10595 10590 10585 10580 10575 10570 10565 10561 10557 10554 10550 10548 10545 10542 10539 10537 10535 10533 10531 10530 10530 10530 10530 10530 10531 10531 10532 10534 10536 10538 10540 10543 10545 10547 10549 10552 10555 10559 10562 10566 10570 10574 10578 10582 10587 10592 10598 10603 10609 10614 10620 10626 10631 10635 10641 10647 10653 10658 10664 10670 10676 10682 10688 10695 10701 10707 10713 10721 10729 10736 10742
10653 10647 10642 10637 10633 10629 10626 10624 10621 10618 10615 10612 10609 10605 10602 10598 10594 10589 10584 10579 10574 10570 10565 10561 10557 10554 10551 10548 10545 10542 10540 10537 10536 10534 10532 10530 10529 10528 10528 10528 10528 10529 10529 10530 10532 10533 10535 10537 10540 10542 10544 10546 10549 10552 10556 10559 10563 10567 10571 10575 10579 10584 10589 10594 10599 10604 10610 10616 10621 10627 10632 10638 10643 10648 10653 10659 10665 10671 10677 10684 10690 10696 10702 10709 10716 10722 10729
10649 10643 10638 10634 10630 10627 10624 10621 10619 10615 10612 10610 10607 10603 10600 10596 10592 10588 10583 10578 10573 10569 10565 10561 10557 10554 10551 10548 10545 10542 10540 10537 10536 10534 10532 10530 10529 10527 10527 10526 10526 10527 10527 10527 10528 10529 10530 10532 10534 10537 10539 10541 10543 10546 10549 10552 10556 10560 10564 10568 10572 10576 10580 10585 10589 10594 10599 10605 10611 10617 10623 10628 10633 10637 10642 10648 10653 10659 10666 10672 10679 10685 10691 10697 10703 10709 10715
10644 10639 10634 10630 10627 10624 10621 10619 10616 10614 10610 10607 10604 10601 10597 10594 10590 10586 10582 10577 10572 10568 10565 10561 10557 10554 10550 10547 10545 10542 10540 10537 10535 10533 10532 10530 10528 10527 10526 10525 10524 10524 10524 10524 10524 10525 10526 10527 10529 10531 10533 10535 10537 10539 10542 10546 10549 10552 10556 10560 10564 10568 10572 10576 10580 10584 10589 10594 10600 10606 10612 10617 10622 10626 10631 10636 10642 10647 10653 10660 10667 10674 10680 10685 10691 10696 10701
10640 10635 10630 10626 10624 10621 10619 10617 10614 10611 10609 10606 10602 10599 10595 10592 10588 10585 10581 10576 10572 10567 10564 10560 10557 10553 10550 10547 10544 10542 10540 10538 10535 10533 10531 10529 10528 10526 10525 10524 10523 10522 10522 10522 10522 10522 10522 10523 10524 10525 10527 10529 10531 10533 10536 10539 10541 10544 10548 10551 10555 10559 10562 10567 10571 10575 10579 10584 10589 10594 10600 10605 10610 10615 10620 10625 10630 10635 10640 10646 10655 10662 10667 10672 10677 10682 10688
10635 10631 10627 10623 10621 10618 10616 10614 10612 10609 10607 10604 10601 10597 10594 10590 10587 10583 10579 10575 10570 10566 10562 10559 10555 10552 10549 10547 10544 10541 10539 10537 10536 10533 10531 10528 10526 10525 10523 10522 10521 10520 10520 10519 10519 10519 10519 10519 10519 10520 10521 10522 10524 10526 10528 10531 10534 10537 10540 10543 10546 10550 10553 10557 10561 10565 10570 10574 10578 10583 10588 10594 10599 10604 10609 10613 10618 10622 10627 10634 10642 10648 10652 10658 10664 10669 10675
10631 10627 10623 10620 10618 10616 10614 10612 10610 10607 10605 10602 10599 10596 10592 10588 10585 10582 10578 10574 10570 10565 10561 10557 10554 10551 10548 10546 10543 10541 10538 10536 10534 10532 10530 10528 10525 10523 10522 10520 10519 10517 10517 10516 10516 10516 10515 10515 10515 10515 10515 10516 10518 10519 10521 10523 10526 10529 10532 10535 10538 10541 10544 10548 10552 10556 10560 10564 10568 10572 10576 10582 10587 10592 10596 10601 10605 10610 10615 10621 10628 10633 10638 10644 10651 10656 10662
10627 10624 10620 10617 10615 10613 10611 10609 10607 10605 10603 10601 10598 10595 10591 10586 10583 10580 10576 10572 10569 10565 10560 10556 10554 10551 10547 10545 10542 10540 10538 10535 10533 10531 10529 10527 10524 10522 10520 10518 10517 10515 10513 10513 10512 10512 10512 10511 10511 10511 10510 10511 10512 10512 10514 10516 10518 10520 10523 10526 10529 10532 10535 10538 10542 10546 10550 10554 10557 10561 10565 10570 10575 10579 10584 10588 10593 10599 10603 10608 10614 10619 10624 10629 10636 10642 10648
10623 10620 10617 10614 10612 10610 10608 10606 10605 10603 10601 10599 10596 10593 10590 10585 10581 10577 10574 10570 10567 10563 10559 10555 10552 10549 10546 10544 10541 10539 10536 10534 10532 10529 10527 10525 10523 10520 10518 10516 10514 10512 10510 10509 10508 10507 10507 10507 10506 10506 10506 10506 10506 10507 10507 10508 10510 10512 10515 10517 10520 10523 10525 10528 10532 10536 10539 10543 10546 10550 10554 10559 10563 10568 10572 10576 10581 10586 10591 10595 10600 10605 10609 10614 10620 10627 10633
10619 10616 10614 10612 10610 10608 10606 10604 10602 10600 10598 10596 10593 10591 10588 10584 10579 10575 10571 10567 10564 10561 10558 10554 10550 10547 10544 10542 10540 10538 10535 10532 10530 10528 10525 10523 10521 10518 10516 10513 10510 10509 10507 10505 10504 10502 10501 10501 10501 10501 10501 10500 10500 10500 10501 10501 10503 10504 10506 10508 10510 10513 10516 10519 10522 10525 10528 10531 10535 10539 10542 10546 10551 10556 10560 10564 10569 10574 10578 10582 10586 10591 10595 10600 10605 10611 10618
10615 10613 10611 10609 10608 10606 10604 10602 10600 10598 10596 10593 10590 10588 10585 10582 10577 10573 10568 10564 10560 10558 10555 10552 10549 10545 10542 10540 10538 10535 10533 10530 10528 10526 10523 10521 10518 10515 10513 10510 10507 10505 10503 10502 10500 10498 10496 10496 10495 10495 10495 10494 10494 10494 10494 10495 10496 10497 10498 10500 10501 10504 10507 10509 10511 10515 10518 10520 10523 10527 10530 10534 10538 10543 10547 10551 10556 10561 10565 10568 10573 10577 10582 10587 10592 10596 10603
10612 10610 10608 10607 10605 10603 10601 10600 10598 10596 10594 10591 10588 10585 10582 10580 10576 10572 10567 10562 10557 10554 10552 10550 10547 10544 10541 10538 10536 10533 10531 10528 10525 10523 10521 10518 10515 10512 10509 10506 10504 10501 10498 10497 10495 10494 10492 10491 10489 10489 10488 10488 10487 10487 10487 10488 10489 10490 10491 10492 10493 10495 10497 10499 10501 10504 10506 10509 10512 10516 10519 10522 10525 10529 10534 10538 10543 10547 10550 10554 10559 10564 10569 10574 10578 10583 10588
10609 10607 10606 10604 10602 10601 10599 10597 10596 10594 10592 10589 10586 10583 10580 10577 10574 10570 10566 10561 10556 10551 10548 10547 10545 10542 10539 10536 10534 10531 10528 10526 10523 10520 10517 10514 10511 10508 10504 10502 10500 10497 10494 10492 10490 10488 10487 10486 10484 10483 10482 10481 10481 10481 10481 10481 10482 10483 10483 10484 10485 10487 10488 10489 10491 10493 10496 10499 10502 10504 10507 10510 10512 10515 10520 10525 10529 10533 10536 10540 10545 10550 10556 10560 10565 10569 10573
10606 10604 10603 10601 10600 10598 10597 10595 10594 10592 10590 10587 10584 10581 10577 10574 10571 10567 10564 10560 10555 10550 10546 10543 10542 10540 10537 10534 10531 10528 10525 10522 10519 10516 10513 10510 10506 10503 10500 10497 10495 10492 10490 10487 10485 10483 10481 10480 10479 10477 10475 10474 10473 10474 10475 10475 10475 10475 10475 10475 10477 10479 10480 10481 10481 10483 10486 10488 10490 10493 10496 10498 10499 10502 10507 10511 10515 10519 10523 10527 10531 10536 10541 10546 10551 10555 10559
10603 10601 10600 10598 10597 10596 10595 10593 10591 10589 10587 10584 10582 10579 10575 10572 10568 10564 10561 10557 10553 10549 10545 10541 10539 10537 10534 10531 10528 10525 10522 10519 10516 10513 10509 10506 10502 10499 10496 10493 10490 10487 10485 10482 10479 10477 10475 10474 10473 10472 10470 10468 10467 10467 10468 10468 10468 10467 10466 10467 10469 10470 10472 10473 10474 10476 10477 10476 10477 10482 10485 10485 10486 10490 10495 10498 10502 10506 10510 10514 10518 10522 10526 10531 10537 10541 10545
10600 10598 10597 10596 10595 10594 10592 10591 10589 10587 10584 10581 10579 10576 10572 10569 10565 10561 10557 10554 10550 10547 10543 10540 10537 10535 10532 10529 10526 10522 10519 10516 10513 10510 10506 10503 10499 10495 10492 10488 10485 10483 10480 10477 10474 10471 10469 10467 10466 10464 10463 10462 10461 10461 10460 10460 10460 10459 10458 10459 10461 10463 10464 10465 10466 10467 10466 10465 10468 10474 10476 10473 10475 10480 10484 10486 10489 10493 10497 10501 10505 10509 10513 10517 10522 10527 10532
10597 10596 10595 10594 10593 10592 10590 10588 10586 10584 10581 10578 10575 10572 10569 10565 10561 10557 10554 10550 10547 10544 10541 10538 10535 10533 10530 10527 10523 10520 10517 10514 10510 10506 10502 10498 10495 10491 10488 10484 10480 10478 10475 10471 10469 10466 10462 10460 10458 10457 10456 10455 10455 10455 10454 10452 10452 10451 10448 10450 10454 10456 10456 10457 10458 10458 10456 10456 10461 10467 10467 10464 10466 10470 10474 10476 10478 10482 10484 10488 10492 10496 10500 10503 10507 10512 10517
10594 10593 10592 10591 10590 10589 10587 10585 10583 10581 10578 10575 10572 10569 10565 10561 10558 10554 10550 10547 10544 10541 10538 10535 10532 10530 10527 10524 10521 10517 10514 10511 10507 10503 10498 10494 10490 10486 10483 10479 10476 10473 10470 10466 10463 10460 10456 10453 10451 10450 10448 10447 10447 10448 10447 10446 10445 10442 10439 10442 10447 10449 10448 10449 10449 10448 10446 10447 10453 10459 10458 10455 10456 10460 10463 10465 10468 10470 10472 10475 10479 10483 10486 10489 10492 10496 10501
10592 10591 10590 10589 10588 10587 10585 10582 10580 10578 10575 10572 10569 10565 10561 10557 10553 10550 10546 10543 10541 10538 10536 10533 10529 10527 10524 10521 10517 10513 10510 10507 10503 10499 10494 10490 10485 10481 10478 10473 10470 10467 10464 10460 10456 10453 10450 10447 10444 10443 10441 10439 10439 10440 10439 10439 10438 10434 10432 10436 10440 10439 10439 10440 10440 10440 10439 10440 10445 10449 10448 10446 10447 10450 10453 10456 10458 10460 10461 10463 10466 10469 10472 10475 10479 10482 10487
10590 10588 10588 10587 10586 10585 10582 10580 10577 10575 10572 10569 10566 10562 10558 10554 10550 10546 10542 10540 10537 10535 10533 10530 10527 10523 10521 10518 10514 10511 10507 10503 10499 10494 10490 10486 10482 10477 10473 10469 10465 10461 10457 10453 10449 10446 10443 10440 10438 10437 10435 10433 10432 10432 10432 10431 10429 10426 10426 10430 10431 10430 10431 10432 10433 10434 10433 10433 10436 10439 10438 10438 10439 10442 10444 10447 10449 10450 10451 10452 10454 10457 10460 10462 10466 10469 10474
10587 10586 10586 10585 10584 10582 10580 10577 10574 10572 10569 10566 10563 10559 10555 10551 10547 10543 10540 10537 10534 10532 10530 10528 10525 10521 10517 10514 10511 10507 10503 10499 10495 10490 10486 10482 10477 10473 10469 10465 10460 10456 10453 10449 10444 10441 10438 10434 10431 10430 10428 10427 10426 10425 10424 10423 10422 10420 10421 10423 10422 10422 10423 10425 10425 10427 10427 10427 10428 10429 10429 10431 10433 10434 10434 10436 10438 10440 10440 10441 10443 10445 10448 10451 10454 10458 10462
10585 10584 10584 10583 10582 10579 10577 10574 10571 10569 10566 10563 10559 10556 10552 10547 10543 10540 10537 10534 10531 10528 10526 10524 10521 10518 10514 10510 10507 10503 10499 10495 10490 10486 10482 10477 10472 10467 10463 10459 10455 10451 10447 10444 10440 10436 10432 10429 10425 10423 10422 10421 10420 10418 10417 10416 10415 10414 10415 10416 10416 10416 10416 10417 10417 10419 10420 10420 10420 10420 10421 10423 10425 10425 10425 10427 10429 10430 10431 10432 10433 10435 10438 10440 10443 10446 10450
10583 10583 10582 10581 10579 10577 10574 10572 10569 10566 10563 10560 10556 10552 10548 10544 10540 10536 10534 10531 10529 10525 10522 10519 10516 10512 10508 10505 10502 10499 10494 10490 10485 10481 10477 10472 10467 10461 10456 10453 10449 10445 10441 10437 10433 10430 10426 10423 10420 10417 10415 10414 10413 10411 10410 10410 10410 10409 10409 10409 10409 10409 10409 10409 10410 10411 10411 10412 10412 10412 10413 10414 10415 10416 10418 10419 10421 10422 10423 10423 10424 10426 10428 10430 10432 10435 10438
10582 10581 10580 10579 10576 10574 10572 10569 10566 10563 10560 10557 10553 10549 10545 10541 10537 10534 10531 10529 10526 10523 10519 10516 10512 10508 10503 10499 10496 10493 10490 10485 10480 10476 10470 10465 10460 10455 10450 10446 10442 10439 10435 10431 10427 10424 10421 10418 10415 10412 10409 10408 10407 10406 10406 10405 10404 10403 10402 10402 10402 10402 10402 10402 10403 10403 10404 10404 10404 10404 10405 10406 10407 10408 10409 10411 10412 10413 10413 10413 10415 10417 10418 10419 10421 10424 10427
10580 10579 10578 10576 10574 10572 10569 10567 10564 10561 10557 10554 10550 10546 10542 10538 10534 10531 10529 10526 10524 10521 10517 10513 10510 10506 10501 10496 10491 10487 10484 10479 10475 10470 10464 10459 10454 10450 10445 10440 10436 10432 10428 10425 10421 10418 10415 10412 10409 10406 10404 10403 10402 10401 10400 10399 10398 10397 10396 10396 10396 10396 10396 10396 10396 10396 10397 10397 10397 10397 10398 10398 10399 10400 10401 10402 10402 10402 10403 10404 10406 10408 10409 10409 10411 10414 10418
10579 10577 10576 10574 10571 10569 10567 10564 10561 10558 10555 10551 10547 10543 10539 10536 10533 10530 10527 10524 10521 10518 10515 10511 10507 10503 10499 10494 10489 10483 10478 10474 10469 10464 10459 10454 10449 10444 10440 10435 10431 10427 10423 10419 10415 10412 10409 10406 10403 10400 10398 10397 10396 10395 10393 10392 10392 10391 10391 10390 10390 10390 10390 10390 10390 10390 10389 10389 10389 10390 10390 10390 10392 10393 10393 10393 10393 10394 10395 10397 10399 10400 10400 10401 10402 10406 10409
10577 10575 10573 10571 10569 10567 10565 10562 10559 10556 10552 10548 10544 10540 10537 10533 10531 10528 10525 10522 10519 10516 10512 10509 10505 10501 10497 10493 10488 10482 10476 10471 10465 10460 10455 10449 10444 10439 10435 10430 10426 10422 10418 10414 10410 10407 10404 10401 10398 10395 10393 10392 10390 10389 10387 10387 10386 10385 10385 10385 10384 10384 10384 10383 10383 10383 10382 10382 10382 10382 10383 10384 10385 10385 10385 10385 10386 10387 10389 10390 10391 10391 10392 10392 10394 10398 10401
10575 10573 10571 10569 10567 10565 10562 10560 10556 10553 10549 10545 10541 10537 10534 10531 10529 10526 10523 10520 10517 10513 10510 10506 10502 10498 10493 10489 10484 10479 10474 10468 10462 10456 10451 10445 10440 10435 10430 10425 10421 10417 10413 10408 10405 10402 10398 10395 10393 10390 10388 10387 10385 10384 10382 10381 10380 10380 10379 10379 10378 10378 10377 10377 10376 10376 10375 10375 10375 10376 10377 10378 10378 10378 10378 10378 10379 10381 10382 10382 10383 10383 10384 10385 10387 10390 10394
10572 10570 10568 10566 10564 10562 10560 10557 10553 10550 10546 10543 10538 10535 10532 10529 10527 10524 10521 10518 10515 10511 10507 10503 10499 10494 10489 10484 10479 10474 10469 10464 10458 10452 10446 10440 10435 10430 10425 10420 10416 10412 10408 10404 10400 10396 10393 10390 10387 10385 10383 10381 10379 10378 10377 10376 10375 10374 10374 10373 10372 10372 10371 10371 10370 10369 10369 10369 10369 10369 10370 10371 10371 10371 10371 10372 10373 10374 10374 10375 10375 10376 10377 10378 10380 10383 10386
10570 10568 10566 10564 10562 10559 10557 10554 10550 10547 10543 10539 10536 10532 10530 10527 10525 10522 10519 10515 10512 10508 10504 10500 10495 10490 10485 10479 10474 10469 10463 10458 10453 10447 10441 10436 10430 10425 10420 10415 10411 10406 10402 10399 10395 10391 10388 10385 10383 10380 10378 10375 10374 10373 10372 10371 10370 10369 10368 10368 10367 10366 10365 10365 10364 10363 10363 10363 10363 10363 10364 10364 10364 10364 10364 10365 10366 10367 10367 10368 10369 10370 10370 10372 10374 10377 10379
10568 10566 10564 10562 10560 10557 10554 10551 10548 10544 10540 10537 10533 10530 10528 10525 10523 10520 10516 10512 10509 10504 10500 10495 10491 10485 10480 10475 10470 10464 10459 10454 10448 10442 10436 10431 10425 10420 10415 10410 10406 10402 10397 10394 10390 10386 10382 10379 10377 10375 10373 10371 10369 10367 10366 10365 10364 10363 10363 10362 10361 10360 10359 10359 10358 10358 10357 10357 10357 10358 10358 10358 10358 10358 10358 10359 10360 10360 10361 10362 10363 10364 10365 10366 10368 10370 10372
10566 10564 10562 10560 10557 10554 10552 10549 10545 10541 10537 10534 10531 10528 10526 10523 10520 10518 10514 10510 10506 10501 10496 10492 10486 10481 10475 10471 10466 10460 10455 10450 10444 10437 10431 10425 10421 10416 10410 10405 10401 10396 10392 10389 10385 10382 10378 10374 10371 10369 10367 10366 10364 10362 10360 10359 10358 10357 10356 10356 10355 10354 10354 10353 10352 10352 10351 10351 10351 10352 10352 10352 10352 10352 10352 10352 10354 10354 10354 10355 10357 10358 10359 10360 10361 10363 10364
10563 10561 10559 10557 10554 10552 10549 10546 10542 10538 10534 10531 10528 10526 10523 10521 10518 10515 10512 10508 10503 10499 10494 10489 10483 10477 10472 10467 10462 10456 10450 10444 10439 10432 10426 10420 10416 10411 10406 10401 10397 10392 10387 10384 10381 10378 10374 10370 10366 10363 10361 10360 10359 10357 10356 10354 10353 10351 10350 10350 10349 10348 10348 10347 10347 10346 10346 10345 10345 10346 10346 10346 10346 10346 10346 10346 10348 10348 10348 10349 10351 10352 10353 10354 10355 10357 10358
10561 10559 10556 10554 10551 10548 10545 10542 10539 10535 10531 10528 10526 10523 10521 10518 10515 10512 10509 10505 10501 10496 10490 10485 10479 10474 10468 10463 10458 10452 10446 10440 10434 10428 10422 10416 10411 10406 10401 10397 10392 10388 10383 10379 10376 10373 10370 10366 10362 10359 10356 10354 10353 10351 10350 10349 10348 10346 10345 10344 10344 10343 10342 10342 10341 10341 10340 10339 10339 10340 10340 10341 10341 10340 10340 10341 10342 10342 10342 10344 10345 10346 10347 10348 10349 10351 10352
10558 10556 10553 10551 10548 10545 10542 10539 10536 10532 10528 10525 10523 10521 10518 10515 10512 10509 10506 10503 10498 10493 10487 10481 10475 10470 10465 10459 10454 10448 10442 10436 10430 10424 10418 10412 10407 10401 10396 10391 10388 10384 10379 10375 10371 10368 10365 10362 10358 10354 10352 10350 10347 10345 10344 10343 10342 10341 10340 10339 10338 10337 10337 10336 10336 10335 10334 10334 10334 10334 10335 10336 10336 10336 10335 10336 10337 10337 10337 10338 10339 10340 10341 10343 10344 10346 10347
10556 10553 10551 10548 10545 10542 10539 10536 10532 10529 10526 10523 10521 10518 10516 10513 10509 10506 10502 10499 10494 10489 10483 10478 10473 10467 10461 10456 10450 10444 10437 10431 10425 10419 10414 10408 10403 10397 10391 10386 10382 10379 10375 10371 10367 10363 10360 10357 10354 10350 10348 10345 10343 10340 10338 10337 10336 10334 10333 10332 10332 10331 10331 10331 10330 10329 10328 10328 10329 10329 10330 10330 10331 10330 10330 10330 10331 10331 10332 10333 10334 10335 10336 10337 10339 10341 10342
10553 10551 10548 10546 10543 10540 10536 10533 10529 10526 10523 10521 10519 10516 10514 10510 10506 10502 10498 10494 10489 10485 10480 10475 10470 10464 10458 10452 10446 10439 10433 10427 10421 10416 10410 10405 10400 10394 10388 10383 10378 10374 10371 10367 10363 10359 10355 10352 10349 10346 10343 10341 10338 10336 10333 10332 10330 10329 10327 10326 10326 10325 10325 10325 10325 10324 10324 10324 10324 10323 10324 10324 10324 10324 10324 10324 10325 10326 10327 10328 10329 10330 10331 10332 10334 10336 10338
10551 10549 10546 10543 10540 10537 10533 10530 10526 10523 10521 10519 10517 10515 10512 10508 10504 10500 10495 10491 10486 10482 10477 10472 10467 10461 10455 10449 10442 10436 10429 10423 10418 10412 10406 10401 10396 10391 10386 10381 10376 10370 10366 10362 10358 10354 10351 10347 10344 10341 10338 10336 10333 10331 10329 10326 10325 10323 10322 10321 10320 10319 10319 10319 10319 10319 10319 10319 10319 10318 10317 10317 10318 10318 10318 10319 10319 10321 10322 10323 10324 10325 10326 10328 10329 10331 10333
10549 10546 10544 10541 10537 10534 10530 10527 10523 10521 10518 10517 10514 10512 10509 10506 10502 10498 10493 10489 10484 10479 10474 10469 10464 10458 10452 10445 10439 10432 10426 10419 10414 10408 10402 10397 10392 10386 10381 10376 10371 10366 10360 10356 10352 10348 10345 10342 10339 10336 10333 10330 10328 10326 10324 10322 10320 10318 10317 10316 10315 10313 10313 10313 10313 10314 10314 10314 10314 10313 10312 10311 10312 10313 10313 10313 10314 10316 10317 10318 10319 10320 10321 10323 10324 10326 10328
10546 10544 10541 10538 10534 10531 10527 10524 10521 10518 10517 10515 10513 10510 10507 10503 10499 10494 10490 10486 10481 10476 10472 10467 10461 10455 10449 10443 10436 10429 10422 10416 10410 10404 10397 10391 10385 10380 10375 10371 10367 10362 10356 10351 10347 10343 10339 10336 10334 10331 10328 10325 10322 10320 10318 10316 10315 10314 10313 10311 10310 10309 10307 10307 10307 10308 10308 10309 10309 10309 10307 10306 10306 10308 10308 10308 10310 10311 10313 10314 10315 10316 10317 10318 10319 10321 10323
10544 10541 10538 10535 10532 10528 10525 10521 10518 10516 10513 10512 10510 10508 10504 10500 10496 10491 10487 10483 10479 10474 10470 10464 10459 10453 10447 10440 10434 10427 10420 10413 10406 10400 10393 10387 10381 10376 10372 10368 10364 10359 10354 10349 10344 10340 10336 10332 10329 10326 10323 10320 10318 10315 10313 10311 10310 10309 10308 10306 10305 10304 10303 10302 10302 10302 10302 10303 10304 10304 10302 10300 10301 10303 10304 10304 10305 10307 10308 10309 10310 10311 10312 10313 10314 10316 10318